1998-067HW

Last updated on Thu May 19 2016 08:36:27 GMT+0100 (British Summer Time)

1 41476U 98067HW 16140.16799087 .00031653 00000-0 45992-3 0 9991 2 41476 51.6413 202.7812 0003396 14.1316 95.5806 15.55493885 324

Satellite not in orbit